STARLINK-31948, 59941

Orbit data source: Space-Track

STARLINK-31948, 59941 is a payload satellite owned by SpaceX/Seattle (US) in LEO that was launched on Sat, 01 Jun 2024 UTC via an FALCON 9 launch vehicle from the Air Force Eastern Test Range (AFETR). Payload-class satellites include a variety of spacecraft equipped with specific instruments for various scientific and technological missions. These include communications satellites like Starlink; space stations such as the ISS; scientific satellites like the Hubble; Earth observation satellites from companies like Planet Labs, Umbra, and HawkEye 360; GPS; miniature CubeSats for education and research; and military/defense satellites.

Loading next visibility...
Identifier
59941, 2024-106V
Orbit
LEO
Country
Flag of USUS
Related business
Manufacturer
SpaceX/Seattle
Mission
Operational Commercial Communications
Bus & Motor
STARLINK V2M, Unknown motor
Mass
730 kg wet, ~700 kg dry
Launch date (UTC)
2024-06-01 (2 years ago)
Launch vehicle
FALCON 9
Launch site
Air Force Eastern Test Range (AFETR)
Object type
Payload
Rocket body
Debris
Shape & HBR
Box + 2 Pan, 17.7 m
Radar Cross Section
33.884 m², Large (>1 m²)

Expand to show TLE details & history
Last TLE update: 11 hours ago

TLE from 11 hours ago
0 STARLINK-31948
1 59941U 24106V   26035.63313031 -.00000963  00000-0 -25496-4 0  9997
2 59941  42.9991 155.9501 0000672 279.0464  81.0311 15.27569492 95500
Epoch: 2026-02-04T15:11Z
TLE epoch observation values (Epoch: 2026-02-04T15:11:42.458Z)
Latitude
-0.00007°
Longitude
153.2262°
Altitude
482.784 km
Speed
7.626 km/s
True Right ascension
10h 23m 48s
True Declination
0° 00' 00"
Sunlit
Object was in full shadow at epoch
Visualization orbit readout
Latitude
Unknown
Longitude
Unknown
Altitude
Unknown
Speed
Unknown
Apparent Right ascension
Unknown
Apparent Declination
Unknown
Sunlit
N/A
Visualization observer readout
Local Sidereal Time
04:38:49
Azimuth
Unknown
Elevation
Unknown
Doppler factor
Unknown
Orbital elements
Apogee altitude
485.487 km
Perigee altitude
484.565 km
Semi-major axis
6,863.163 km
Eccentricity
0.00007
Inclination
42.9991°
RAAN
155.9501°
Arg. of periapsis
279.0464°
True anomaly
81.03871°
Mean anomaly
81.0311°
Eccentric anomaly
81.0349°
Mean motion
3.8173 °/min
Orbital period
94.31 mins
BSTAR
-0.000025496
Loading maneuver chart data...
Computing Atmospheric mass density...
Loading historical data...
Loading historical data...
Loading historical data...
Loading historical data...
Loading historical data...
Loading historical data...
Loading historical data...

Documentation

Showing up to 5 results
|